NC4J Weather Reports


time (UTC)temp
C
wind
direction
speed
KPH
gust
KPH
rain 1hr
cm
rain 24hr
cm
rain mn
cm
humidity
%
barometer
mb
20260906044805 20 347 0.0 0.0 0.00 0.00 0.00 98 1016.5
20260906044259 20 347 0.0 0.0 0.00 0.00 0.00 98 1016.4
20260906043755 20 347 0.0 0.0 0.00 0.00 0.00 98 1016.7
20260906043251 20 347 0.0 0.0 0.00 0.00 0.00 98 1016.6
20260906042750 20 346 0.0 0.0 0.00 0.00 0.00 98 1016.6
20260906042250 20 346 1.6 1.6 0.00 0.00 0.00 98 1016.4
20260906041745 20 347 0.0 0.0 0.00 0.00 0.00 98 1016.3
20260906041241 20 347 0.0 0.0 0.00 0.00 0.00 98 1016.3
20260906040736 20 347 1.6 1.6 0.00 0.00 0.00 98 1016.4
20260906040231 20 347 0.0 0.0 0.00 0.00 0.00 98 1016.3
20260906035726 20 347 0.0 0.0 0.00 0.00 0.00 98 1016.5
20260906035222 20 347 0.0 0.0 0.00 0.00 0.00 98 1016.5
20260906034722 20 347 0.0 0.0 0.00 0.00 0.00 98 1016.3
20260906034217 20 347 0.0 0.0 0.00 0.00 0.00 98 1016.6
20260906033713 20 347 0.0 0.0 0.00 0.00 0.00 98 1016.7
20260906033212 20 347 0.0 0.0 0.00 0.00 0.00 98 1016.6
20260906032709 20 347 0.0 0.0 0.00 0.00 0.00 98 1016.7
20260906032209 20 347 1.6 1.6 0.00 0.00 0.00 98 1017.0
20260906031704 20 347 0.0 0.0 0.00 0.00 0.00 98 1017.1
20260906031159 20 347 1.6 1.6 0.00 0.00 0.00 97 1016.8
20260906030659 20 347 0.0 0.0 0.00 0.00 0.00 97 1016.9
20260906030154 20 347 0.0 0.0 0.00 0.00 0.00 97 1017.0
20260906025654 20 347 0.0 0.0 0.00 0.00 0.00 97 1017.1
20260906025153 20 347 0.0 0.0 0.00 0.00 0.00 97 1016.8
20260906024648 21 347 0.0 0.0 0.00 0.00 0.00 97 1016.9
20260906024147 21 347 0.0 0.0 0.00 0.00 0.00 97 1016.8
20260906023643 21 347 0.0 0.0 0.00 0.00 0.00 97 1016.9
20260906023143 21 347 0.0 0.0 0.00 0.00 0.00 97 1016.8
20260906022638 21 347 0.0 0.0 0.00 0.00 0.00 97 1016.9
20260906022134 21 346 0.0 0.0 0.00 0.00 0.00 97 1016.7
20260906021630 21 347 1.6 1.6 0.00 0.00 0.00 97 1016.5
20260906021129 21 347 0.0 0.0 0.00 0.00 0.00 97 1016.3
20260906020629 21 347 0.0 0.0 0.00 0.00 0.00 97 1015.8
20260906020124 21 347 1.6 1.6 0.00 0.00 0.00 96 1016.3
20260906015618 21 347 0.0 0.0 0.00 0.00 0.00 96 1016.2
20260906015117 21 347 0.0 0.0 0.00 0.00 0.00 96 1016.1
20260906014611 21 347 0.0 0.0 0.00 0.00 0.00 96 1016.2
20260906014108 21 347 0.0 0.0 0.00 0.00 0.00 96 1016.1
20260906013603 21 347 0.0 0.0 0.00 0.00 0.00 95 1016.4
20260906013058 21 347 0.0 0.0 0.00 0.00 0.00 95 1016.0
20260906012553 21 347 0.0 0.0 0.00 0.00 0.00 95 1016.0
20260906012053 21 347 1.6 1.6 0.00 0.00 0.00 95 1015.8
20260906011549 21 347 0.0 0.0 0.00 0.00 0.00 95 1016.1
20260906011048 21 347 0.0 0.0 0.00 0.00 0.00 94 1016.1
20260906010544 21 347 0.0 0.0 0.00 0.00 0.00 94 1016.0
20260906010040 21 347 0.0 0.0 0.00 0.00 0.00 94 1016.0
20260906005539 21 347 0.0 0.0 0.00 0.00 0.00 93 1015.8
20260906005039 21 347 0.0 0.0 0.00 0.00 0.00 93 1015.8
20260906004538 22 347 0.0 0.0 0.00 0.00 0.00 93 1015.8
20260906004033 22 347 0.0 0.0 0.00 0.00 0.00 93 1015.6
20260906003528 22 347 1.6 1.6 0.00 0.00 0.00 92 1015.7
20260906003024 22 347 0.0 0.0 0.00 0.00 0.00 93 1015.6
20260906002519 22 347 0.0 0.0 0.00 0.00 0.00 92 1015.5
20260906002014 22 347 0.0 0.0 0.00 0.00 0.00 91 1015.5
20260906001510 22 347 0.0 0.0 0.00 0.00 0.00 92 1015.4
20260906001004 22 347 0.0 0.0 0.00 0.00 0.00 91 1015.4
20260906000500 22 347 0.0 0.0 0.00 0.00 0.00 91 1015.3
20260905235954 23 347 1.6 1.6 0.00 0.00 0.00 90 1015.3
20260905235454 23 347 0.0 0.0 0.00 0.00 0.00 90 1015.1
20260905234949 23 347 0.0 0.0 0.00 0.00 0.00 90 1015.2
20260905234445 23 347 0.0 0.0 0.00 0.00 0.00 89 1015.3
20260905233944 23 347 1.6 1.6 0.00 0.00 0.00 89 1015.1
20260905233440 23 347 1.6 1.6 0.00 0.00 0.00 88 1015.2
20260905232939 24 347 0.0 0.0 0.00 0.00 0.00 87 1015.1
20260905232435 24 347 1.6 1.6 0.00 0.00 0.00 86 1015.0
20260905231930 25 347 1.6 1.6 0.00 0.00 0.00 84 1014.9
20260905231426 25 347 0.0 0.0 0.00 0.00 0.00 85 1014.9
20260905230922 25 347 1.6 1.6 0.00 0.00 0.00 84 1015.0
20260905230421 25 347 0.0 0.0 0.00 0.00 0.00 82 1015.0
20260905225919 25 347 0.0 0.0 0.00 0.00 0.00 81 1014.9
20260905225414 26 347 1.6 1.6 0.00 0.00 0.00 79 1014.9
20260905224909 26 347 1.6 1.6 0.00 0.00 0.00 77 1014.9
20260905224405 25 349 3.2 3.2 0.00 0.00 0.00 75 1015.0
20260905223859 25 330 1.6 1.6 0.00 0.00 0.00 81 1014.9
20260905223358 25 330 1.6 1.6 0.00 0.00 0.00 81 1015.0
20260905222857 26 330 1.6 1.6 0.00 0.00 0.00 81 1015.0
20260905222356 26 330 1.6 1.6 0.00 0.00 0.00 79 1015.0
20260905221852 26 331 0.0 0.0 0.00 0.00 0.00 72 1015.0
20260905221349 26 329 1.6 1.6 0.00 0.00 0.00 76 1014.9
20260905220844 26 329 1.6 1.6 0.00 0.00 0.00 70 1015.1
20260905220341 26 330 1.6 1.6 0.00 0.00 0.00 74 1015.2
20260905215840 26 333 0.0 0.0 0.00 0.00 0.00 76 1015.1
20260905215336 25 332 1.6 1.6 0.00 0.00 0.00 73 1015.3
20260905214832 25 343 1.6 0.0 0.00 0.00 0.00 80 1015.2
20260905214327 26 344 1.6 1.6 0.00 0.00 0.00 77 1015.3
20260905213827 26 343 0.0 0.0 0.00 0.00 0.00 76 1015.5
20260905213324 25 343 0.0 0.0 0.00 0.00 0.00 74 1015.5
20260905212819 25 344 3.2 1.6 0.00 0.00 0.00 76 1015.7
20260905212319 25 338 0.0 0.0 0.00 0.00 0.00 74 1015.8
20260905211818 25 338 0.0 0.0 0.00 0.00 0.00 76 1016.2
20260905211313 25 338 1.6 1.6 0.00 0.00 0.00 78 1016.0
20260905210810 25 338 1.6 1.6 0.00 0.00 0.00 75 1016.2
20260905210309 25 338 0.0 0.0 0.00 0.00 0.00 76 1016.1
20260905205808 25 338 1.6 1.6 0.00 0.00 0.00 77 1016.1
20260905205306 25 338 1.6 0.0 0.00 0.00 0.00 76 1015.8
20260905204802 25 344 1.6 1.6 0.00 0.00 0.00 77 1016.2
20260905204259 25 345 0.0 1.6 0.00 0.00 0.00 73 1015.8
20260905203758 25 344 0.0 0.0 0.00 0.00 0.00 73 1016.2
20260905203254 25 345 0.0 0.0 0.00 0.00 0.00 73 1016.1
20260905202749 25 345 1.6 1.6 0.00 0.00 0.00 75 1016.2
20260905202244 25 345 0.0 0.0 0.00 0.00 0.00 75 1016.1
20260905201739 25 345 0.0 0.0 0.00 0.00 0.00 74 1016.2
20260905201234 25 345 1.6 0.0 0.00 0.00 0.00 74 1016.4
20260905200729 25 345 0.0 0.0 0.00 0.00 0.00 72 1016.6
20260905200225 25 345 1.6 1.6 0.00 0.00 0.00 71 1016.6
20260905195723 25 330 0.0 0.0 0.00 0.00 0.00 78 1016.5
20260905195218 25 330 0.0 0.0 0.00 0.00 0.00 75 1016.6
20260905194714 25 329 0.0 0.0 0.00 0.00 0.00 74 1016.9
20260905194214 24 328 3.2 3.2 0.00 0.00 0.00 75 1016.6
20260905193708 24 331 1.6 1.6 0.00 0.00 0.00 78 1016.7
20260905193202 23 338 3.2 3.2 0.00 0.00 0.00 80 1016.7
20260905192658 23 339 0.0 0.0 0.00 0.00 0.00 80 1016.9
20260905192154 23 339 0.0 0.0 0.00 0.00 0.00 85 1016.8
20260905191654 23 339 0.0 0.0 0.00 0.00 0.00 83 1016.7
20260905191152 23 339 0.0 0.0 0.00 0.00 0.00 83 1016.6
20260905190651 23 339 0.0 0.0 0.00 0.00 0.00 84 1016.9
20260905190150 23 339 0.0 0.0 0.00 0.00 0.00 86 1017.1
20260905185649 22 339 0.0 0.0 0.00 0.00 0.00 85 1017.3
20260905185144 22 339 0.0 0.0 0.00 0.00 0.00 87 1017.4
20260905184643 22 339 1.6 1.6 0.00 0.00 0.00 87 1017.3
20260905184142 22 87 1.6 1.6 0.00 0.00 0.00 86 1017.2
20260905183642 22 88 0.0 0.0 0.00 0.00 0.00 85 1017.4
20260905183137 22 88 0.0 0.0 0.00 0.00 0.00 82 1017.7
20260905182637 23 89 1.6 1.6 0.00 0.00 0.00 80 1017.7
20260905182137 25 49 3.2 3.2 0.00 0.00 0.00 73 1017.9
20260905181631 25 102 3.2 3.2 0.00 0.00 0.00 66 1017.9
20260905181130 26 82 6.4 12.9 0.00 0.00 0.00 65 1017.9
20260905180626 26 33 9.7 12.9 0.00 0.00 0.00 67 1017.7
20260905180121 27 292 0.0 0.0 0.00 0.00 0.00 76 1017.1
20260905175620 27 292 1.6 1.6 0.00 0.00 0.00 74 1016.9
20260905175116 27 334 0.0 0.0 0.00 0.00 0.00 71 1017.0
20260905174611 27 325 9.7 9.7 0.00 0.00 0.00 67 1016.7
20260905174106 28 305 4.8 4.8 0.00 0.00 0.00 65 1016.7
20260905173603 28 309 4.8 4.8 0.00 0.00 0.00 61 1016.7
20260905173058 28 357 1.6 1.6 0.00 0.00 0.00 61 1017.1
20260905172556 29 14 1.6 1.6 0.00 0.00 0.00 60 1017.3
20260905172052 29 357 1.6 0.0 0.00 0.00 0.00 61 1017.3
20260905171548 30 338 0.0 0.0 0.00 0.00 0.00 57 1017.2
20260905171044 30 325 3.2 1.6 0.00 0.00 0.00 58 1017.1
20260905170541 30 10 1.6 1.6 0.00 0.00 0.00 56 1017.0
20260905170035 31 328 3.2 3.2 0.00 0.00 0.00 56 1017.0
20260905165531 30 4 0.0 0.0 0.00 0.00 0.00 59 1017.1
20260905165026 30 310 6.4 6.4 0.00 0.00 0.00 59 1017.0
20260905164526 30 29 3.2 3.2 0.00 0.00 0.00 58 1017.0
20260905164020 30 345 1.6 1.6 0.00 0.00 0.00 60 1017.3
20260905163517 30 318 3.2 3.2 0.00 0.00 0.00 59 1017.6
20260905163012 30 318 1.6 1.6 0.00 0.00 0.00 61 1017.7
20260905162508 30 7 1.6 1.6 0.00 0.00 0.00 62 1017.4
20260905162003 29 318 1.6 1.6 0.00 0.00 0.00 63 1017.8
20260905161502 29 295 6.4 9.7 0.00 0.00 0.00 63 1017.9
20260905161000 29 305 4.8 3.2 0.00 0.00 0.00 62 1017.8
20260905160500 29 341 4.8 4.8 0.00 0.00 0.00 65 1017.8
20260905155959 28 335 0.0 0.0 0.00 0.00 0.00 66 1017.9
20260905155454 28 19 1.6 1.6 0.00 0.00 0.00 66 1017.8
20260905154953 28 1 1.6 1.6 0.00 0.00 0.00 67 1018.0
20260905154448 28 344 1.6 1.6 0.00 0.00 0.00 66 1017.9
20260905153944 28 314 3.2 3.2 0.00 0.00 0.00 66 1017.9
20260905153440 28 30 1.6 1.6 0.00 0.00 0.00 66 1017.8
20260905152939 28 301 1.6 1.6 0.00 0.00 0.00 68 1017.6
20260905152439 27 328 0.0 0.0 0.00 0.00 0.00 72 1017.7
20260905151939 27 315 1.6 1.6 0.00 0.00 0.00 72 1017.7
20260905151435 27 330 6.4 6.4 0.00 0.00 0.00 70 1017.8
20260905150930 27 331 0.0 0.0 0.00 0.00 0.00 70 1017.7
20260905150431 27 328 3.2 3.2 0.00 0.00 0.00 71 1017.9
20260905145927 27 333 1.6 1.6 0.00 0.00 0.00 71 1018.1
20260905145427 27 42 1.6 1.6 0.00 0.00 0.00 71 1017.7
20260905144926 26 346 1.6 1.6 0.00 0.00 0.00 74 1017.7
20260905144422 26 20 1.6 1.6 0.00 0.00 0.00 75 1017.8
20260905143921 26 320 0.0 0.0 0.00 0.00 0.00 78 1018.0
20260905143415 26 319 0.0 0.0 0.00 0.00 0.00 78 1018.1
20260905142914 26 319 0.0 0.0 0.00 0.00 0.00 79 1017.9
20260905142413 25 319 1.6 1.6 0.00 0.00 0.00 80 1017.9
20260905141909 25 318 3.2 4.8 0.00 0.00 0.00 79 1017.8
20260905141404 25 335 3.2 3.2 0.00 0.00 0.00 81 1018.0
20260905140900 25 337 1.6 1.6 0.00 0.00 0.00 80 1018.1
20260905140355 25 324 3.2 3.2 0.00 0.00 0.00 82 1018.2
20260905135854 24 47 1.6 1.6 0.00 0.00 0.00 84 1018.1
20260905135350 24 69 0.0 0.0 0.00 0.00 0.00 89 1018.1
20260905134845 23 69 0.0 0.0 0.00 0.00 0.00 88 1017.9
20260905134344 23 69 0.0 0.0 0.00 0.00 0.00 89 1018.3
20260905133838 23 69 0.0 0.0 0.00 0.00 0.00 93 1018.4
20260905133334 23 69 0.0 0.0 0.00 0.00 0.00 93 1018.2
20260905132833 22 69 0.0 0.0 0.00 0.00 0.00 94 1018.3
20260905132329 22 69 0.0 0.0 0.00 0.00 0.00 95 1018.4
20260905131828 22 69 0.0 0.0 0.00 0.00 0.00 97 1018.3
20260905131324 22 69 0.0 0.0 0.00 0.00 0.00 98 1018.6
20260905130819 21 69 0.0 0.0 0.00 0.00 0.00 99 1018.6
20260905130318 21 69 0.0 0.0 0.00 0.00 0.00 99 1018.5
20260905125814 21 69 0.0 0.0 0.00 0.00 0.00 99 1018.6
20260905125308 21 69 0.0 0.0 0.00 0.00 0.00 99 1018.5
20260905124804 20 69 0.0 0.0 0.00 0.00 0.00 99 1018.4
20260905124300 20 69 0.0 0.0 0.00 0.00 0.00 99 1018.4
20260905123755 20 70 0.0 0.0 0.00 0.00 0.00 99 1018.5
20260905123253 20 70 0.0 0.0 0.00 0.00 0.00 99 1018.3
20260905122752 20 70 0.0 0.0 0.00 0.00 0.00 99 1018.4
20260905122251 20 70 0.0 0.0 0.00 0.00 0.00 99 1018.3
20260905121747 20 70 0.0 0.0 0.00 0.00 0.00 99 1018.4
20260905121244 20 71 0.0 0.0 0.00 0.00 0.00 99 1018.1
20260905120742 19 71 0.0 0.0 0.00 0.00 0.00 99 1018.2
20260905120236 19 71 0.0 0.0 0.00 0.00 0.00 99 1018.3
20260905115732 19 73 0.0 0.0 0.00 0.00 0.00 99 1018.3
20260905115231 19 73 0.0 0.0 0.00 0.00 0.00 99 1018.0
20260905114726 19 73 0.0 0.0 0.00 0.00 0.00 99 1018.2
20260905114224 19 73 0.0 0.0 0.00 0.00 0.00 99 1018.2
20260905113724 18 73 0.0 0.0 0.00 0.00 0.00 99 1018.2
20260905113220 18 73 0.0 0.0 0.00 0.00 0.00 99 1018.0
20260905112720 18 73 0.0 0.0 0.00 0.00 0.00 99 1017.8
20260905112215 18 73 0.0 0.0 0.00 0.00 0.00 99 1017.8
20260905111715 18 73 0.0 0.0 0.00 0.00 0.00 99 1017.7
20260905111215 18 73 0.0 0.0 0.00 0.00 0.00 99 1017.4
20260905110714 18 73 0.0 0.0 0.00 0.00 0.00 99 1017.7
20260905110209 18 73 0.0 0.0 0.00 0.00 0.00 99 1017.6
20260905105705 18 73 0.0 0.0 0.00 0.00 0.00 99 1017.7
20260905105203 18 73 0.0 0.0 0.00 0.00 0.00 99 1017.4
20260905104658 19 73 0.0 0.0 0.00 0.00 0.00 99 1017.3
20260905104154 19 73 0.0 0.0 0.00 0.00 0.00 99 1017.4
20260905103649 18 73 0.0 0.0 0.00 0.00 0.00 99 1017.3
20260905103144 18 73 0.0 0.0 0.00 0.00 0.00 99 1017.0
20260905102640 19 73 1.6 1.6 0.00 0.00 0.00 99 1017.1
20260905102137 19 73 0.0 0.0 0.00 0.00 0.00 99 1017.0
20260905101635 19 73 0.0 0.0 0.00 0.00 0.00 99 1016.9
20260905101133 19 73 1.6 0.0 0.00 0.00 0.00 99 1017.0
20260905100630 19 73 0.0 0.0 0.00 0.00 0.00 99 1017.1
20260905100126 19 73 0.0 0.0 0.00 0.00 0.00 99 1016.8
20260905095624 19 73 0.0 0.0 0.00 0.00 0.00 99 1017.0
20260905095120 19 73 0.0 0.0 0.00 0.00 0.00 99 1017.2
20260905094615 19 73 0.0 0.0 0.00 0.00 0.00 99 1016.8
20260905094115 19 73 0.0 0.0 0.00 0.00 0.00 99 1017.0
20260905093614 19 73 0.0 0.0 0.00 0.00 0.00 99 1017.1
20260905093111 19 73 1.6 1.6 0.00 0.00 0.00 99 1017.0
20260905092610 19 72 0.0 0.0 0.00 0.00 0.00 99 1017.1
20260905092107 19 72 0.0 0.0 0.00 0.00 0.00 99 1017.3
20260905091605 19 71 0.0 0.0 0.00 0.00 0.00 99 1017.2
20260905091101 20 71 0.0 0.0 0.00 0.00 0.00 99 1017.3
20260905090600 20 70 0.0 0.0 0.00 0.00 0.00 99 1017.0
20260905090056 20 70 0.0 0.0 0.00 0.00 0.00 99 1017.2
20260905085554 20 70 0.0 0.0 0.00 0.00 0.00 99 1017.4
20260905085050 20 70 0.0 0.0 0.00 0.00 0.00 99 1017.2
20260905084549 20 70 0.0 0.0 0.00 0.00 0.00 99 1017.4
20260905084044 20 70 0.0 0.0 0.00 0.00 0.00 99 1017.8
20260905083539 20 70 0.0 0.0 0.00 0.00 0.00 99 1017.6
20260905083036 20 70 0.0 0.0 0.00 0.00 0.00 99 1017.6
20260905082531 20 70 0.0 0.0 0.00 0.00 0.00 99 1017.7
20260905082027 20 70 0.0 0.0 0.00 0.00 0.00 99 1017.7
20260905081526 20 69 0.0 0.0 0.00 0.00 0.00 99 1017.7
20260905081027 20 69 0.0 0.0 0.00 0.00 0.00 99 1017.7
20260905080526 20 69 0.0 0.0 0.00 0.00 0.00 99 1017.8
20260905080022 20 69 0.0 0.0 0.00 0.00 0.00 99 1017.9
20260905075521 20 69 0.0 0.0 0.00 0.00 0.00 99 1018.0
20260905075021 20 69 0.0 0.0 0.00 0.00 0.00 99 1017.9
20260905074515 20 69 1.6 1.6 0.00 0.00 0.00 99 1018.0
20260905074011 20 69 0.0 0.0 0.00 0.00 0.00 99 1017.8
20260905073506 20 69 0.0 0.0 0.00 0.00 0.00 99 1017.9
20260905073002 20 69 0.0 0.0 0.00 0.00 0.00 99 1017.9
20260905072501 20 69 0.0 0.0 0.00 0.00 0.00 99 1018.2
20260905071957 20 69 0.0 0.0 0.00 0.00 0.00 99 1018.0
20260905071454 20 69 0.0 0.0 0.00 0.00 0.00 99 1018.1
20260905070954 20 69 0.0 0.0 0.00 0.00 0.00 99 1018.0
20260905070450 20 69 0.0 0.0 0.00 0.00 0.00 99 1018.1
20260905065950 20 69 0.0 0.0 0.00 0.00 0.00 99 1018.2
20260905065448 20 69 0.0 0.0 0.00 0.00 0.00 99 1018.0
20260905064944 20 69 1.6 1.6 0.00 0.00 0.00 99 1018.2
20260905064444 20 69 0.0 0.0 0.00 0.00 0.00 99 1018.3
20260905063938 20 69 0.0 0.0 0.00 0.00 0.00 98 1018.3
20260905063433 20 68 0.0 0.0 0.00 0.00 0.00 98 1018.2
20260905062930 20 68 0.0 0.0 0.00 0.00 0.00 98 1018.3
20260905062429 20 68 0.0 0.0 0.00 0.00 0.00 98 1018.4
20260905061925 20 68 1.6 1.6 0.00 0.00 0.00 98 1018.4
20260905061425 20 68 0.0 0.0 0.00 0.00 0.00 98 1018.3
20260905060924 20 68 0.0 0.0 0.00 0.00 0.00 98 1018.3
20260905060421 21 68 1.6 1.6 0.00 0.00 0.00 98 1018.5
20260905055919 21 68 0.0 0.0 0.00 0.00 0.00 98 1018.6
20260905055415 21 68 0.0 0.0 0.00 0.00 0.00 98 1018.7
20260905054914 21 68 0.0 0.0 0.00 0.00 0.00 98 1018.8
20260905054410 21 68 0.0 0.0 0.00 0.00 0.00 98 1018.5
20260905053910 21 68 0.0 0.0 0.00 0.00 0.00 98 1018.8
20260905053405 21 68 0.0 0.0 0.00 0.00 0.00 98 1018.7
20260905052901 21 68 0.0 0.0 0.00 0.00 0.00 98 1018.7
20260905052400 21 68 0.0 0.0 0.00 0.00 0.00 98 1018.7
20260905051859 21 68 0.0 0.0 0.00 0.00 0.00 98 1018.8
20260905051356 21 68 0.0 0.0 0.00 0.00 0.00 98 1018.6
20260905050853 21 68 0.0 0.0 0.00 0.00 0.00 98 1018.5
20260905050348 21 68 0.0 0.0 0.00 0.00 0.00 98 1018.7
20260905045848 21 68 1.6 1.6 0.00 0.00 0.00 98 1018.7
20260905045344 21 68 0.0 0.0 0.00 0.00 0.00 98 1018.6